www.pogodaiklimat.ru

Погода и климат >> Архив погоды >> Индия >> Орисса >> Гопалпер


ПОГОДА в Гопалпере

  • Прогноз погоды в Гопалпере
  • Монитор погоды в Гопалпере

АРХИВ ПОГОДЫ в Гопалпере

Время (UTC), дата Ветер
(напр.,м/с)
 
Видим.   Явления Облачность Т
(С)
Тd
(С)
f
(%)
Тe
(С)
Тes
(С)
Комфортность P
(гПа)
Po
(гПа)
Тmin
(С)
Tmax
(С)
R
(мм)
R24
(мм)
S
(см)
18 18.05 Ю 5 2000 м мгла 4/3 600 м
[Sc Ci fib]
+28.6 +26.4 88 +44 +44 опасность
перегрева
1005.3 1003.4
21 18.05 Ю 4 2000 м мгла 4/3 600 м
[Sc Ci fib]
+28.4 +26.4 89 +43 +43 опасность
перегрева
1003.9 1002.0
00 19.05 Ю 3 2000 м мгла 3/1 600 м
[Sc Ci fib]
+27.8 +26.1 90 +42 +42 опасность
перегрева
1004.4 1002.5
03 19.05 Ю 4 4000 м мгла 1/0
[Ci fib]
+29.6 +27.4 88 +48 +54 опасность
перегрева
1006.6 1004.7 +27.3
06 19.05 Ю 2 4000 м 1/0
[Ci fib]
+31.4 +27.3 79 +50 +71 опасность
перегрева
1006.3 1004.4
09 19.05 Ю 5 4000 м 3/0
[Ac trans]
+31.4 +27.8 81 +51 +58 опасность
перегрева
1004.9 1003.0
12 19.05 Ю 5 4000 м 4/3 600 м
[Sc Ci fib]
+29.8 +27.9 90 +49 +50 опасность
перегрева
1004.4 1002.5 +32.1
15 19.05 Ю 5 4000 м мгла 4/0
[Ac trans Ci fib]
+28.0 +27.5 97 +45 +45 опасность
перегрева
1006.8 1004.9
18 19.05 Ю 2 2000 м мгла 5/0
[Ac trans Ci fib]
+28.4 +27.6 95 +46 +46 опасность
перегрева
1008.0 1006.1
21 19.05 Ю 5 1000 м дымка 6/4 600 м
[Sc Ac trans]
+28.2 +27.6 97 +46 +46 опасность
перегрева
1006.4 1004.5
00 20.05 Ю 2 2000 м мгла 9/5 600 м
[Sc Ac trans]
+28.2 +27.4 95 +45 +45 опасность
перегрева
1006.5 1004.6
03 20.05 Ю 3 2000 м мгла 9/4 600 м
[Sc Ac trans Ci fib]
+29.6 +28.0 91 +49 +52 опасность
перегрева
1008.1 1006.2 +27.3
06 20.05 Ю 5 4000 м 5/3 600 м
[Sc Ci fib]
+30.6 +27.6 84 +49 +57 опасность
перегрева
1008.0 1006.1
09 20.05 Ю 6 4000 м 3/3 600 м
[Sc diur, vesp]
+31.4 +27.8 81 +51 +55 опасность
перегрева
1005.9 1004.0
12 20.05 ЮЗ 4 4000 м 9/5 540 м
[Cb cap Ac trans Ci fib]
+30.0 +27.2 85 +48 +48 опасность
перегрева
1006.5 1004.6 +33.0
15 20.05 штиль 0 4000 м мгла {гроза} 8/3 600 м
[Sc Ac trans Ci fib]
+28.0 +25.2 85 +41 +41 опасность
перегрева
1007.3 1005.4
18 20.05 Ю 3 2000 м мгла {гроза} 6/3 600 м
[Sc Ac trans Ci fib]
+28.0 +25.2 85 +41 +41 опасность
перегрева
1007.7 1005.8
21 20.05 Ю 2 2000 м мгла 6/3 600 м
[Sc Ac trans Ci fib]
+27.6 +25.3 87 +40 +40 очень
душно
1006.4 1004.5
00 21.05 Ю 4 2000 м мгла 9/4 540 м
[Sc Ac trans Ci fib]
+27.4 +25.4 89 +40 +40 очень
душно
1006.0 1004.1
03 21.05 Ю 4 4000 м 4/1 600 м
[Sc Ci fib]
+29.4 +27.2 88 +47 +52 опасность
перегрева
1008.2 1006.3 +26.0
06 21.05 Ю 5 4000 м ясно +31.0 +27.4 81 +49 +62 опасность
перегрева
1007.5 1005.6
09 21.05 Ю 6 4000 м ясно +31.2 +27.6 81 +50 +56 опасность
перегрева
1005.5 1003.6
12 21.05 Ю 6 4000 м 4/1 600 м
[Sc Ac trans Ci fib]
+29.6 +27.4 88 +48 +48 опасность
перегрева
1005.0 1003.1 +32.3
15 21.05 Ю 6 2000 м мгла 4/3 600 м
[Sc Ci fib]
+29.0 +27.3 91 +47 +47 опасность
перегрева
1006.4 1004.5
18 21.05 Ю 5 2000 м мгла 4/3 600 м
[Sc Ci fib]
+28.6 +27.5 94 +46 +46 опасность
перегрева
1006.6 1004.7
21 21.05 Ю 3 2000 м мгла 4/3 600 м
[Sc Ci fib]
+28.2 +27.4 95 +45 +45 опасность
перегрева
1004.9 1003.0
00 22.05 ЮЗ 2 2000 м мгла 3/3 600 м
[Sc]
+28.0 +27.2 95 +44 +44 опасность
перегрева
1005.6 1003.7
03 22.05 Ю 3 4000 м ясно +29.4 +26.9 86 +46 +55 опасность
перегрева
1007.0 1005.1 +27.0
06 22.05 Ю 6 4000 м ясно +30.8 +26.6 78 +47 +55 опасность
перегрева
1006.6 1004.7
09 22.05 Ю 6 4000 м ясно +31.4 +27.3 79 +50 +55 опасность
перегрева
1004.5 1002.6
12 22.05 Ю 6 4000 м 3/0
[Ci fib]
+29.8 +27.3 86 +47 +48 опасность
перегрева
1003.5 1001.6 +32.4
15 22.05 Ю 6 4000 м мгла 3/0
[Ci fib]
+29.4 +27.5 90 +48 +48 опасность
перегрева
1005.3 1003.4
18 22.05 Ю 6 2000 м мгла 3/0
[Ci fib]
+29.0 +27.6 92 +47 +47 опасность
перегрева
1005.8 1003.9
21 22.05 Ю 3 2000 м мгла 3/0
[Ci fib]
+28.8 +27.7 94 +47 +47 опасность
перегрева
1004.6 1002.7
00 23.05 Ю 4 2000 м мгла 4/0
[Ci fib]
+27.8 +26.7 94 +43 +43 опасность
перегрева
1005.3 1003.4
03 23.05 Ю 6 2000 м мгла 8/3 600 м
[Sc Ac trans Ci fib]
+28.8 +26.6 88 +45 +46 опасность
перегрева
1006.8 1004.9 +27.5
06 23.05 Ю 6 4000 м 5/3 600 м
[Sc Ci fib]
+30.6 +27.0 81 +48 +53 опасность
перегрева
1006.6 1004.7
09 23.05 Ю 7 4000 м 4/3 600 м
[Sc Ci fib]
+30.6 +27.6 84 +49 +52 опасность
перегрева
1004.5 1002.6
12 23.05 Ю 6 4000 м 4/3 600 м
[Sc Ci fib]
+29.6 +27.4 88 +48 +48 опасность
перегрева
1003.6 1001.7 +31.6
15 23.05 Ю 7 4000 м мгла 3/0
[Ac trans]
+28.6 +27.2 92 +45 +45 опасность
перегрева
1004.7 1002.8
18 23.05 Ю 8 2000 м мгла 3/3 600 м
[Sc]
+28.6 +27.2 92 +45 +45 опасность
перегрева
1005.7 1003.8
21 23.05 Ю 7 2000 м мгла 8/4 600 м
[Sc Ac trans]
+28.6 +26.6 89 +44 +44 опасность
перегрева
1004.6 1002.7
00 24.05 Ю 6 4000 м мгла 4/0
[Ac trans Ci fib]
+28.4 +26.4 89 +43 +43 опасность
перегрева
1004.8 1002.9
03 24.05 Ю 6 4000 м мгла 3/0
[Ac trans Ci fib]
+29.8 +25.9 80 +45 +49 опасность
перегрева
1006.4 1004.5 +28.1
06 24.05 Ю 6 4000 м ясно +31.2 +26.8 78 +49 +57 опасность
перегрева
1006.3 1004.4
09 24.05 Ю 7 4000 м ясно +31.2 +26.8 78 +49 +52 опасность
перегрева
1003.9 1002.0
12 24.05 Ю 7 4000 м 3/0
[Ci fib]
+30.0 +27.2 85 +48 +48 опасность
перегрева
1002.5 1000.6 +32.2
15 24.05 Ю 7 4000 м мгла 3/0
[Ci fib]
+29.8 +26.2 81 +45 +45 опасность
перегрева
1003.8 1001.9
18 24.05 Ю 7 2000 м мгла 3/0
[Ci fib]
+28.8 +27.1 91 +46 +46 опасность
перегрева
1004.0 1002.1
21 24.05 Ю 7 2000 м мгла 3/0
[Ci fib]
+28.6 +26.9 91 +45 +45 опасность
перегрева
1002.0 1000.1
00 25.05 Ю 6 2000 м мгла 5/3 600 м
[Sc Ac trans Ci fib]
+28.4 +26.7 91 +44 +44 опасность
перегрева
1002.2 1000.3
03 25.05 Ю 3 4000 м мгла 1/0
[Ci fib]
+29.8 +26.5 83 +46 +54 опасность
перегрева
1003.7 1001.8 +27.8
06 25.05 Ю 5 4000 м 1/0
[Ci fib]
+31.0 +26.8 78 +48 +59 опасность
перегрева
1003.1 1001.2
09 25.05 Ю 6 4000 м ясно +31.4 +27.3 79 +50 +55 опасность
перегрева
1000.7 998.8
12 25.05 Ю 7 4000 м 1/1 600 м
[Sc]
+29.8 +27.0 85 +47 +47 опасность
перегрева
999.6 997.7 +32.4
15 25.05 Ю 6 4000 м мгла 3/1 600 м
[Sc Ac trans]
+29.0 +27.3 91 +47 +47 опасность
перегрева
1001.7 999.8

 

Местоположение метеостанции Гопалпер (Орисса, Индия): широта 19.27 долгота 84.88 высота над уровнем моря 17 м.

В архиве по умолчанию представлена погода в Гопалпере за последнюю неделю. Архивные данные за месяц целиком и за предыдущие месяцы, начиная с января 2011 года, Вы можете получить, выбрав интересующий диапазон дат из раскрывающегося списка и нажав кнопку "Ввод!".


*Определитесь, кто Вы:
робот инопланетянин человек

Внимание! Время в таблицах - всемирное. Для получения местного времени необходимо прибавить поправку, которая равна 5.5 ч.

Смотрите также архив погоды в соседних городах и на ближайших метеорологических станциях:

Погода в Пури (Орисса, Индия) (115 км)
Погода в Калингапатнаме (Андхра-Прадеш, Индия) (131 км)
Погода в Бхубанешваре (Орисса, Индия) (148 км)
Погода в Пхулбани (Орисса, Индия) (149 км)
Погода в Каттаке (Орисса, Индия) (173 км)
Погода в Ангуле (Орисса, Индия) (175 км)
Погода в Бхаванипатне (Орисса, Индия) (192 км)
Погода в Титилагаре (Орисса, Индия) (201 км)
Погода в Парадипе (Орисса, Индия) (220 км)
Погода в Корапуте (Орисса, Индия) (233 км)

Пояснения к столбцам:

Ветер - указаны скорость ветра в м/с - средняя за 10 мин, порывы в срок и между сроками (в фигурных скобках) и направление, откуда дует ветер: С - северный, СВ - северо-восточный, В - восточный, ЮВ - юго-восточный, Ю - южный, ЮЗ - юго-западный, З - западный, СЗ - северо-западный.
Видимость - горизонтальная дальность видимости в метрах или километрах. При видимости от 1 до 10 км при отсутствии осадков обычно наблюдается дымка, при ухудшении видимости до 1 км и менее - туман. В сухую погоду видимость может ухудшаться дымом, пылью или мглою.
Явления - указаны атмосферные явления, наблюдавшиеся в срок или в последний час перед сроком; фигурными скобками обозначены явления, наблюдавшиеся между сроками (за 1-3 часа до срока); квадратными скобками обозначены град или гололедные отложения с указанием их диаметра в мм.
Облачность - указаны через наклонную черту общая и нижняя облачность в баллах и высота нижней границы облаков в метрах; квадратными скобками обозначены формы облаков: Ci - перистые, Cs - перисто-слоистые, Cc - перисто-кучевые, Ac - высококучевые, As - высокослоистые, Sc - слоисто-кучевые, Ns - слоисто-дождевые, Cu - кучевые, Cb - кучево-дождевые. Подробнее классификацию облаков см. в Атласе облаков (PDF).
T - Температура воздуха - температура, измеренная на высоте 2 м над землей.
Td - Температура точки росы - температура, при понижении до которой содержащийся в воздухе водяной пар достигнет насыщения.
f - Относительная влажность воздуха - влажноcть воздуха, измеренная на высоте 2 м над землей.
Te - Эффективная температура - температура, которую ощущает одетый по сезону человек в тени. Характеристика душности погоды. При расчете учитывается влияние влажности воздуха и скорости ветра на теплоощущения человека.
Tes - Эффективная температура на солнце - температура, которую ощущает человек, с поправкой на солнечный нагрев. Характеристика знойности погоды. Зависит от высоты солнца над горизонтом, облачности и скорости ветра. Ночью, в пасмурную погоду, а также при ветре 12 м/с и более поправка равна нулю.
P - Атмосферное давление - приведенное к уровню моря атмосферное давление.
Po - Атмосферное давление - измеренное на уровне метеостанции атмосферное давление.
Tmin - Минимальная температура - минимум температуры воздуха на высоте 2 м над землей.
Tmax - Максимальная температура - максимум температуры воздуха на высоте 2 м над землей.
R - Количество осадков - Количество выпавших осадков за период времени, мм. При наведении курсора мыши на число - период времени, за который выпало указанное количество осадков.
R24 - Количество осадков - Количество выпавших осадков за 24 часа, мм.
S - Снежный покров - Высота снежного покрова, см. При наведении курсора мыши на число - состояние снежного покрова и степень покрытия местности в баллах.